Weather History for Petersburg, WV

Change the Weather History Date:

Friday, October 5, 2012

  Actual Average (KEKN) Record (KEKN)
Temperature  
Mean Temperature 64 °F 55 °F  
Max Temperature 79 °F 67 °F 86 °F (1941)
Min Temperature 48 °F 42 °F 26 °F (1935)
Degree Days  
Heating Degree Days 2 10  
Month to date heating degree days 48  
Since 1 July heating degree days 208  
Cooling Degree Days 0 0  
Month to date cooling degree days 0  
Year to date cooling degree days 471  
Growing Degree Days 14 (Base 50)    
Moisture  
Dew Point 52 °F    
Average Humidity 74    
Maximum Humidity 94    
Minimum Humidity 37    
Precipitation  
Precipitation 0.00 in 0.09 in 2.44 in (1972)
Month to date precipitation 0.45  
Year to date precipitation 36.89  
Snow  
Snow 0.00 in - - ()
Month to date snowfall  
Since 1 September snowfall  
Snow Depth -    
Sea Level Pressure  
Sea Level Pressure 30.12 in    
Wind  
Wind Speed 0 mph (WSW)    
Max Wind Speed 8 mph    
Max Gust Speed -    
Visibility 8 miles    
Events Fog    
T = Trace of Precipitation, MM = Missing Value Source: NWS Daily Summary

Daily Weather History Graph

Daily Weather History Graph

Search for Another Location

Airport:

Trip Planner

Search our weather history database for the weather conditions in past years. The results will help you decide how hot, cold, wet, or windy it might be!

Date:

Astronomy

Oct. 05, 2012 Rise Set
Actual Time 7:16 AM EDT 6:52 PM EDT
Civil Twilight 6:50 AM EDT 7:18 PM EDT
Nautical Twilight 6:19 AM EDT 7:49 PM EDT
Astronomical Twilight 5:48 AM EDT 8:20 PM EDT
Moon 10:16 PM EDT (10/5) 12:20 PM EDT (10/5)
Length of Visible Light 12h 28m
Length of Day
11h 35m
Waning Gibbous, 74% of the Moon is Illuminated
Oct 5
Waning Gibbous
Oct 8
Last Quarter
Oct 15
New
Oct 21
First Quarter
Oct 29
Full

Hourly Weather History & Observations

Time (EDT) Temp. Dew Point Humidity Pressure Visibility Wind Dir Wind Speed Gust Speed Precip Events Conditions
12:15 AM 53.4 °F 50.7 °F 91% 30.21 in 10.0 mi Calm Calm - N/A   Clear
12:35 AM 52.7 °F 50.2 °F 91% 30.21 in 4.0 mi Calm Calm - N/A   Clear
12:55 AM 52.2 °F 49.6 °F 91% 30.21 in 10.0 mi Calm Calm - N/A   Clear
1:15 AM 50.9 °F 48.6 °F 92% 30.21 in 7.0 mi Calm Calm - N/A   Clear
1:35 AM 50.7 °F 48.4 °F 92% 30.21 in 4.0 mi Calm Calm - N/A   Clear
1:55 AM 49.8 °F 47.3 °F 91% 30.21 in 4.0 mi Calm Calm - N/A   Clear
2:15 AM 49.1 °F 46.9 °F 92% 30.21 in 3.0 mi Calm Calm - N/A   Clear
2:35 AM 49.1 °F 46.8 °F 92% 30.21 in 5.0 mi Calm Calm - N/A   Clear
2:55 AM 49.3 °F 47.1 °F 92% 30.21 in 4.0 mi Calm Calm - N/A   Clear
3:15 AM 48.9 °F 46.8 °F 92% 30.21 in 5.0 mi Calm Calm - N/A   Clear
3:35 AM 49.1 °F 46.9 °F 92% 30.20 in 5.0 mi Calm Calm - N/A   Clear
3:55 AM 49.5 °F 47.3 °F 92% 30.20 in 5.0 mi Calm Calm - N/A   Clear
4:15 AM 50.2 °F 48.0 °F 92% 30.20 in 5.0 mi Calm Calm - N/A   Clear
4:35 AM 50.4 °F 48.4 °F 93% 30.20 in 5.0 mi Calm Calm - N/A   Clear
4:55 AM 50.0 °F 48.0 °F 93% 30.20 in 3.0 mi Calm Calm - N/A   Clear
5:15 AM 49.5 °F 47.5 °F 93% 30.20 in 5.0 mi Calm Calm - N/A   Scattered Clouds
5:35 AM 49.5 °F 47.5 °F 93% 30.20 in 7.0 mi Calm Calm - N/A   Scattered Clouds
5:55 AM 49.6 °F 47.7 °F 93% 30.20 in 5.0 mi Calm Calm - N/A   Scattered Clouds
6:15 AM 49.3 °F 47.5 °F 94% 30.20 in 5.0 mi Calm Calm - N/A   Clear
6:35 AM 48.4 °F 46.2 °F 92% 30.20 in 5.0 mi Calm Calm - N/A   Scattered Clouds
6:55 AM 48.9 °F 46.9 °F 93% 30.20 in 7.0 mi Calm Calm - N/A   Mostly Cloudy
7:15 AM 48.7 °F 46.8 °F 93% 30.21 in 0.2 mi Calm Calm - N/A Fog Fog
7:35 AM 48.9 °F 46.9 °F 93% 30.21 in 0.2 mi Calm Calm - N/A Fog Fog
7:55 AM 50.0 °F 47.8 °F 92% 30.21 in 0.2 mi Calm Calm - N/A Fog Fog
8:15 AM 51.1 °F 49.1 °F 93% 30.21 in 2.5 mi Calm Calm - N/A   Clear
8:35 AM 52.3 °F 50.4 °F 93% 30.21 in 5.0 mi Calm Calm - N/A   Clear
8:55 AM 53.6 °F 51.6 °F 93% 30.21 in 7.0 mi Calm Calm - N/A   Clear
9:15 AM 55.4 °F 53.2 °F 92% 30.20 in 10.0 mi Calm Calm - N/A   Clear
9:35 AM 57.6 °F 54.7 °F 90% 30.20 in 10.0 mi Calm Calm - N/A   Clear
9:55 AM 61.5 °F 56.1 °F 82% 30.20 in 10.0 mi Calm Calm - N/A   Clear
10:15 AM 63.1 °F 56.5 °F 79% 30.19 in 10.0 mi Calm Calm - N/A   Clear
10:35 AM 66.0 °F 56.7 °F 72% 30.18 in 10.0 mi Calm Calm - N/A   Clear
10:55 AM 69.4 °F 57.4 °F 65% 30.17 in 10.0 mi Calm Calm - N/A   Clear
11:15 AM 72.1 °F 58.1 °F 61% 30.16 in 10.0 mi Calm Calm - N/A   Clear
11:35 AM 75.0 °F 57.4 °F 54% 30.15 in 10.0 mi Calm Calm - N/A   Clear
11:55 AM 75.9 °F 56.7 °F 51% 30.14 in 10.0 mi Calm Calm - N/A   Clear
12:15 PM 76.5 °F 54.7 °F 47% 30.13 in 10.0 mi Calm Calm - N/A   Clear
12:35 PM 76.6 °F 53.4 °F 44% 30.12 in 10.0 mi Calm Calm - N/A   Clear
12:55 PM 76.6 °F 52.3 °F 43% 30.12 in 10.0 mi Calm Calm - N/A   Clear
1:15 PM 78.4 °F 54.0 °F 43% 30.11 in 10.0 mi West 8.1 mph - N/A   Scattered Clouds
1:35 PM 77.4 °F 53.1 °F 43% 30.09 in 10.0 mi WSW 4.6 mph - N/A   Scattered Clouds
1:55 PM 77.4 °F 52.9 °F 42% 30.09 in 10.0 mi Calm Calm - N/A   Clear
2:15 PM 77.5 °F 53.6 °F 43% 30.08 in 10.0 mi SW 3.5 mph - N/A   Clear
2:35 PM 77.9 °F 50.7 °F 39% 30.07 in 10.0 mi WSW 4.6 mph - N/A   Clear
2:55 PM 78.1 °F 51.6 °F 40% 30.07 in 10.0 mi SW 6.9 mph - N/A   Clear
3:15 PM 79.3 °F 51.3 °F 37% 30.06 in 10.0 mi SW 5.8 mph - N/A   Scattered Clouds
3:35 PM 77.5 °F 51.4 °F 40% 30.05 in 10.0 mi SW 3.5 mph - N/A   Mostly Cloudy
4:15 PM 78.8 °F 52.0 °F 39% 30.04 in 10.0 mi WSW 3.5 mph - N/A   Mostly Cloudy
4:35 PM 79.3 °F 51.8 °F 38% 30.03 in 10.0 mi West 3.5 mph - N/A   Scattered Clouds
4:55 PM 78.6 °F 53.2 °F 41% 30.03 in 10.0 mi West 3.5 mph - N/A   Clear
5:15 PM 79.0 °F 51.3 °F 38% 30.03 in 10.0 mi Calm Calm - N/A   Mostly Cloudy
5:35 PM 77.5 °F 54.9 °F 45% 30.02 in 10.0 mi Calm Calm - N/A   Mostly Cloudy
5:55 PM 77.5 °F 52.2 °F 41% 30.02 in 10.0 mi Calm Calm - N/A   Scattered Clouds
6:15 PM 74.1 °F 57.0 °F 55% 30.02 in 10.0 mi Calm Calm - N/A   Mostly Cloudy
6:35 PM 72.0 °F 55.9 °F 57% 30.02 in 10.0 mi Calm Calm - N/A   Mostly Cloudy
6:55 PM 67.8 °F 56.5 °F 67% 30.02 in 10.0 mi Calm Calm - N/A   Overcast
7:15 PM 68.7 °F 55.6 °F 63% 30.03 in 10.0 mi Calm Calm - N/A   Overcast
7:35 PM 65.8 °F 56.3 °F 71% 30.02 in 10.0 mi Calm Calm - N/A   Mostly Cloudy
7:55 PM 63.1 °F 55.8 °F 77% 30.03 in 10.0 mi Calm Calm - N/A   Overcast
8:15 PM 63.1 °F 55.9 °F 77% 30.03 in 10.0 mi Calm Calm - N/A   Mostly Cloudy
8:35 PM 61.3 °F 55.2 °F 80% 30.03 in 10.0 mi Calm Calm - N/A   Scattered Clouds
8:55 PM 61.5 °F 56.3 °F 83% 30.03 in 10.0 mi Calm Calm - N/A   Mostly Cloudy
9:15 PM 61.7 °F 55.9 °F 81% 30.02 in 10.0 mi Calm Calm - N/A   Scattered Clouds
9:35 PM 61.3 °F 57.0 °F 86% 30.02 in 10.0 mi Calm Calm - N/A   Clear
9:55 PM 59.4 °F 55.2 °F 86% 30.02 in 10.0 mi Calm Calm - N/A   Clear
10:15 PM 60.1 °F 56.3 °F 87% 30.01 in 7.0 mi Calm Calm - N/A   Clear
10:35 PM 58.6 °F 55.4 °F 89% 30.00 in 5.0 mi Calm Calm - N/A   Clear
10:55 PM 56.7 °F 53.6 °F 89% 30.00 in 7.0 mi Calm Calm - N/A   Clear
11:15 PM 57.4 °F 54.5 °F 90% 29.99 in 7.0 mi Calm Calm - N/A   Clear
11:35 PM 56.7 °F 53.8 °F 90% 29.99 in 4.0 mi Calm Calm - N/A   Clear
11:55 PM 54.7 °F 51.8 °F 90% 29.98 in 7.0 mi Calm Calm - N/A   Clear